Flag for Germany Weather past 2 weeks in Tönisvorst, North Rhine-Westphalia, Germany

Now
28 °F

Clear.


Feels Like: 23 °F
Forecast: 26 / 38 °F
Wind: 5 mph from Northwest

Location: Monchengladbach Airport

Current Time: Dec 28, 2014 at 4:59:41 PM

Latest Report: Dec 28, 2014 at 4:20 PM


Visibility: 10 mi

Pressure: 30.42 "Hg

Humidity: 80%

Dew point: 23 °F

Location of TönisvorstLocation

Historic Weather in Tönisvorst — Graph

°F

Tönisvorst temperature yesterday

Maximum temperature yesterday: 34 °F (at 8:20 AM)
Minimum temperature yesterday: 32 °F (at 7:50 AM)
Average temperature yesterday: 34 °F

Past Weeks' High & Low Weather Summary

 TemperatureHumidityPressure
High55 °F (Dec 18, 12:20 PM)100% (Dec 13, 8:20 PM)30.42 "Hg (Dec 13, 8:20 PM)
Low25 °F (Dec 28, 7:50 AM)59% (Dec 28, 1:50 PM)29.42 "Hg (Dec 27, 9:20 AM)
Average44 °F87%29.97 "Hg
* Reported Dec 13 3:20 PM — Dec 28 3:50 PM, Tönisvorst, Weather by CustomWeather, © 2014

Note: Actual official high and low records may vary slightly from our data, if they occured in-between our weather recording intervals... More about our weather records

Advertising

Tönisvorst weather history for previous 24 hours

 ConditionsComfort  
Time TempWeatherWind HumidityBarometerVisibility
3:50 PM
Dec 28
30 °FClear.6 mph75%30.42 "Hg10 mi
3:20 PM30 °FClear.6 mph75%30.39 "Hg10 mi
2:50 PM30 °FPassing clouds.7 mph69%30.39 "HgN/A
2:20 PM30 °FPassing clouds.8 mph59%30.36 "HgN/A
1:50 PM30 °FClear.9 mph59%30.36 "Hg10 mi
1:20 PM28 °FPassing clouds.9 mph64%30.33 "HgN/A
12:50 PM28 °FClear.9 mph64%30.33 "Hg10 mi
12:20 PM28 °FClear.13 mph64%30.30 "Hg10 mi
11:50 AM27 °FClear.10 mph69%30.30 "Hg10 mi
11:20 AM27 °FClear.13 mph69%30.30 "Hg10 mi
10:50 AM27 °FClear.12 mph69%30.27 "Hg10 mi
10:20 AM25 °FClear.8 mph74%30.24 "Hg10 mi
9:50 AM25 °FClear.9 mph74%30.21 "Hg10 mi
9:20 AM25 °FClear.8 mph74%30.21 "Hg10 mi
8:50 AM25 °FPassing clouds.12 mph74%30.15 "HgN/A
8:20 AM25 °FPassing clouds.13 mph69%30.12 "HgN/A
7:50 AM25 °FPassing clouds.9 mph74%30.09 "HgN/A
8:20 PM
Dec 27
34 °FPassing clouds.14 mph70%29.59 "HgN/A
7:50 PM34 °FClear.15 mph75%29.56 "Hg10 mi
7:20 PM34 °FPassing clouds.16 mph81%29.53 "HgN/A
6:50 PM34 °FPassing clouds.14 mph87%29.53 "HgN/A
6:20 PM34 °FLight snow. Partly cloudy.13 mph93%29.50 "HgN/A
5:50 PM34 °FPartly cloudy.12 mph93%29.50 "HgN/A
5:20 PM34 °FPassing clouds.10 mph100%29.47 "HgN/A
4:50 PM34 °FPassing clouds.9 mph100%29.45 "HgN/A
4:20 PM34 °FPassing clouds.9 mph100%29.45 "Hg5 mi
Weather by CustomWeather, © 2014

See weather overviewHow to use our weather pages